Weather in Khmelnytskyi

Ukraine / Khmelnitsky District     49°25′22″N   26°59′13″E
temp.,
°C
wind,
m/s
gust,
m/s
humid.,
%
clouds,
%
prec.,
mm/h
press.,
hPa
HPBL,
m
13 april, tue
tue1300:00+9se336264 0.0 101937
03:00+7sse22695 0.0 101925
06:00+6se227214 0.0 101922
09:00+10se236379 0.0 1018202
12:00+15sse334684 0.0 1017946
15:00+16se1138100 0.0 10161718
18:00+15e4454100 0.0 1015478
21:00+10ese4876100 0.0 1015235
14 april, wed
wed1400:00+10ene1176100 0.0 101541
03:00+9ese2479100 0.0 1014140
06:00+8se2681100 0.0 1013258
09:00+9sse4679100 0.0 1013515
12:00+8sse4780100 0.1 1013478
15:00+13s565297 0.1 10111749
18:00+11wsw447396 0.7 1011432
21:00+7nw5792100 1.4 1013308
15 april, thu
thu1500:00+6nnw4593100 0.1 1013301
03:00+6nnw4696100 0.1 1012395
06:00+6n4697100 0.8 1012277
09:00+6n4597100 3.6 1012278
12:00+6nnw4696100 1.2 1012375
15:00+6nw4596100 2.1 1012270
18:00+6nw5897100 2.4 1012297
21:00+4nw51096100 3.1 1012354
16 april, fri
fri1600:00+3wnw61196100 1.7 1011386
03:00+3nw41097100 2.4 1010353
06:00+4nw5997100 0.1 1010288
09:00+5nw5997100 0.8 1010275
12:00+6nw4698100 3.9 1010279
15:00+7n4795100 5.7 1010578
18:00+6ne4793100 2.1 1012834
21:00+5nnw239383 2.2 101456
17 april, sat
sat1700:00+6wnw2293100 0.4 101560
03:00+5ne3694100 1.5 1016223
06:00+4ne2391100 0.2 101761
09:00+4e4592100 0.4 1019559
12:00+6ene4478100 0.2 1020929
15:00+6ene4482100 0.3 1021818
18:00+6e2385100 0.1 1022385
21:00+5ene118691 0.1 102222